Liberia, Costa Rica

10:35 PM CST on November 23, 2017 (GMT -0600)
Daniel Oduber Quiros International

Weather History for MRLB - September, 2014

Change the Weather History Date:

Tuesday, September 16, 2014

  Actual Average Record
Temperature  
Mean Temperature 82 °F -  
Max Temperature 92 °F 84 °F 96 °F (2015)
Min Temperature 73 °F 73 °F 69 °F (2006)
Cooling Degree Days 18    
Growing Degree Days 32 (Base 50)    
Moisture  
Dew Point 72 °F    
Average Humidity 71    
Maximum Humidity 100    
Minimum Humidity 40    
Precipitation  
Precipitation 0.00 in - - ()
Sea Level Pressure  
Sea Level Pressure 29.89 in    
Wind  
Wind Speed 4 mph ()    
Max Wind Speed 9 mph    
Max Gust Speed -    
Visibility 7.7 miles    
Events Fog , Rain    
Averages and records for this station are not official NWS values.
T = Trace of Precipitation, MM = Missing Value Source: Averaged Metar Reports

Daily Weather History Graph

Daily Weather History Graph

Search for Another Location

Airport or City:

Trip Planner

Search our weather history database for the weather conditions in past years. The results will help you decide how hot, cold, wet, or windy it might be!

Date:

Astronomy

Sep. 16, 2014 Rise Set
Actual Time 5:31 AM CST 5:42 PM CST
Civil Twilight 5:10 AM CST 6:03 PM CST
Nautical Twilight 4:46 AM CST 6:27 PM CST
Astronomical Twilight 4:21 AM CST 6:52 PM CST
Moon No Moon Rise 12:19 PM CST (9/16)
Length of Visible Light 12h 52m
Length of Day
12h 10m
Last Quarter, 43% of the Moon is Illuminated
Sep 16
Last Quarter
Sep 24
New
Oct 1
First Quarter
Oct 8
Full
Oct 15
Last Quarter

Hourly Weather History & Observations

Time (CST) Temp. Heat Index Dew Point Humidity Pressure Visibility Wind Dir Wind Speed Gust Speed Precip Events Conditions
6:00 AM 74 °F - 73 °F 94% 29.94 in 12 mi SSE 3.5 mph - -   Overcast
6:00 AM 73.4 °F - 73.4 °F 100% 29.90 in 6.2 mi SSE 3.5 mph - N/A Fog Patches of Fog
7:00 AM 75.2 °F - 75.2 °F 100% 29.92 in 6.2 mi SW 2.3 mph - N/A Fog Mostly Cloudy
8:00 AM 78.8 °F - 77.0 °F 94% 29.93 in 6.2 mi SE 3.5 mph - N/A   Scattered Clouds
9:00 AM 82 °F - 72 °F 66% 29.96 in 12 mi SSE 2.3 mph - -   Scattered Clouds
9:00 AM 82.4 °F 88.2 °F 73.4 °F 74% 29.94 in 6.2 mi SSE 2.3 mph - N/A   Scattered Clouds
10:00 AM 87.8 °F 93.8 °F 71.6 °F 58% 29.93 in 6.2 mi SSE 6.9 mph - N/A   Scattered Clouds
11:00 AM 87.8 °F 92.6 °F 69.8 °F 55% 29.91 in 6.2 mi East 8.1 mph - N/A   Mostly Cloudy
12:00 PM 87 °F - 71 °F 49% 29.92 in 12 mi East 4.6 mph - -   Partly Cloudy
12:00 PM 87.8 °F 93.8 °F 71.6 °F 58% 29.90 in 6.2 mi East 4.6 mph - N/A   Mostly Cloudy
1:00 PM 89.6 °F 94.7 °F 69.8 °F 52% 29.87 in 6.2 mi East 9.2 mph - N/A   Mostly Cloudy
2:00 PM 89.6 °F 93.4 °F 68.0 °F 49% 29.83 in 6.2 mi East 8.1 mph - N/A   Scattered Clouds
3:00 PM 90 °F - 69 °F 40% 29.83 in 12 mi SE 5.8 mph - -   Partly Cloudy
3:00 PM 89.6 °F 93.4 °F 68.0 °F 49% 29.82 in 6.2 mi SE 5.8 mph - N/A   Scattered Clouds
4:00 PM 84.2 °F 90.9 °F 73.4 °F 70% 29.83 in 6.2 mi West 5.8 mph - N/A Rain Rain
5:00 PM 78.8 °F - 71.6 °F 78% 29.84 in 6.2 mi SW 4.6 mph - N/A   Mostly Cloudy
6:00 PM 79 °F - 73 °F 76% 29.88 in 12 mi West 4.6 mph - -   Overcast
6:00 PM 78.8 °F - 73.4 °F 83% 29.86 in 6.2 mi West 4.6 mph - N/A   Mostly Cloudy
7:00 PM 77.0 °F - 71.6 °F 83% 29.88 in 6.2 mi South 3.5 mph - N/A   Mostly Cloudy
8:00 PM 77.0 °F - 71.6 °F 83% 29.91 in 6.2 mi SSE 4.6 mph - N/A   Mostly Cloudy